Location: Nairn
(57.5833°N, 3.8667°W)
Time: 02:55:21
(UTC+00:00)

UNK - Pass Details

Date: 16 December 2021
Orbit: 666 x 686 km, 98.2° (Epoch: 22 January)

Event Time Altitude Azimuth Distance (km) Brightness Sun altitude
Exits shadow 17:05:50 - 10° (N) 2,976 6.7 -11.3°
Reaches altitude 10° 17:08:23 10° 356° (N) 2,109 6.1 -11.6°
Maximum altitude 17:11:46 21° 308° (NW) 1,509 5.9 -12.0°
Drops below altitude 10° 17:15:08 10° 260° (W) 2,097 7.6 -12.4°
Sets 17:17:48 0° 245° (WSW) 3,006 9.2 -12.7°
